Location: Jetmore Motorplex
(37.9889°N, 99.8876°W)
Time: 04:04:07
(UTC+00:00)

Daily predictions for brighter satellites

Satellite Brightness Start Highest point End
(mag) Time Altitude Azimuth Time Altitude Azimuth Time Altitude Azimuth
COSMOS 2406 3.7 00:37:37 10° NNW 00:43:16 68° WSW 00:48:55 10° S
STARLINK-46 2.9 00:44:27 10° NNW 00:46:35 31° NE 00:48:37 10° ESE
Cosmos 2297 4.1 00:41:23 10° S 00:46:40 42° ESE 00:51:57 10° NE
Cosmos 1943 Rocket 3.7 00:44:39 10° SE 00:47:36 15° E 00:50:31 10° ENE
USA 267 4.3 00:43:48 10° ENE 00:49:07 26° SE 00:54:25 10° S
Cosmos 2228 Rocket 3.2 00:46:01 10° N 00:50:29 58° E 00:54:58 10° SSE
STARLINK-67 3.6 00:49:35 10° WNW 00:51:58 41° SW 00:54:21 10° SSE
Cosmos 2173 Rocket 4.0 00:46:21 10° S 00:52:37 68° E 00:58:58 10° NNE
Cosmos 1238 Rocket 4.2 00:48:12 10° SSE 00:53:38 46° E 00:59:46 10° NNE
Lacrosse 4 Rocket 1.8 00:52:46 10° S 00:56:38 40° ESE 01:00:37 10° NE
STARLINK-26 3.3 00:54:04 10° SW 00:57:30 73° NW 01:00:57 10° NE
Cosmos 968 Rocket 3.8 00:53:15 10° N 00:58:11 43° ENE 01:03:07 10° SE
Cosmos 292 Rocket 3.9 00:56:41 10° S 01:01:23 55° ESE 01:06:05 10° NNE
Cosmos 2100 Rocket 4.1 00:58:17 10° S 01:04:39 89° WSW 01:11:03 10° N
Cosmos 2369 Rocket 3.6 01:03:48 10° SE 01:07:19 17° E 01:09:59 13° ENE
Cosmos 1503 Rocket 4.3 01:04:50 10° N 01:09:56 45° ENE 01:14:55 10° SE
STARLINK-75 3.5 01:07:21 10° SSW 01:10:40 48° SE 01:13:11 16° ENE
Centaur D AC-28 4.0 00:53:04 10° WSW 01:11:24 43° S 01:15:53 11° ESE
Cosmos 2061 Rocket 4.0 01:05:38 10° S 01:12:00 68° E 01:18:21 10° NNE
STARLINK-22 3.8 01:10:35 10° SSW 01:13:50 38° SE 01:15:54 19° ENE
Cosmos 1805 Rocket 3.5 01:10:13 10° S 01:14:35 72° E 01:18:58 10° NNE
STARLINK-41 3.6 01:11:53 10° SSW 01:15:12 44° SE 01:17:21 19° ENE
STARLINK-58 3.9 01:12:04 10° SSW 01:15:23 37° SE 01:17:26 19° ENE
COSMO-SKYMED 1 3.8 01:11:40 10° N 01:15:49 45° WNW 01:19:57 10° SW
Atlas 2A Centaur Rocket 3.9 01:09:31 10° WSW 01:15:58 23° SSW 01:18:41 10° SE
Cosmos 2082 Rocket 2.1 01:10:51 10° NNW 01:16:31 79° ENE 01:22:10 10° SSE
STARLINK-62 3.8 01:13:42 10° SSW 01:17:05 41° SE 01:19:06 20° ENE
Cosmos 1782 2.8 01:14:42 10° N 01:18:43 88° ENE 01:22:43 10° S
STARLINK-34 3.7 01:16:29 10° SSW 01:19:52 43° SE 01:21:47 22° ENE
USA 229 DEB 3.9 01:15:25 10° S 01:21:30 45° ESE 01:27:50 10° NE
USA 229 3.9 01:15:32 10° S 01:21:36 44° ESE 01:27:55 10° NE
USA 116 3.9 01:18:05 10° N 01:21:48 73° WNW 01:25:59 10° SSW
Cosmos 1862 3.4 01:18:01 10° S 01:21:54 50° E 01:25:47 10° NNE
Sich 1 3.0 01:18:04 10° S 01:22:19 61° E 01:26:33 10° NNE
BREEZE-M DEB (TANK) 3.7 01:13:33 10° NW 01:23:23 60° NNE 01:25:35 22° E
STARLINK-61 3.4 01:19:44 10° SW 01:23:37 81° SE 01:26:20 19° NE
Cosmos 1459 Rocket 4.3 01:18:41 10° SSW 01:24:41 67° W 01:30:44 10° N
Abrixas rocket 3.4 01:22:59 10° NNW 01:25:25 23° NNE 01:25:58 21° NE
SL-4 R/B 3.7 01:21:44 10° NNW 01:25:37 24° NNE 01:27:28 19° NE
ATLAS 5 CENTAUR R/B 3.9 01:21:30 10° NW 01:27:12 41° WSW 01:33:32 10° S
Cosmos 1707 Rocket 3.9 01:23:03 10° N 01:27:17 44° E 01:31:32 10° SSE
STARLINK-33 2.9 01:25:36 10° SW 01:28:53 86° SE 01:30:35 26° NE
NOSS 3-1 (A) 4.1 01:24:36 10° SSE 01:28:59 26° ESE 01:30:58 22° ENE
Cosmos 1725 Rocket 3.9 01:24:10 10° S 01:30:17 73° E 01:36:27 10° N
STARLINK-66 2.9 01:27:13 10° SW 01:30:30 88° NW 01:32:10 27° NE
STARLINK-55 3.0 01:29:05 10° SW 01:32:22 81° NW 01:33:59 27° NE
STARLINK-28 3.1 01:30:50 10° SW 01:34:05 71° NW 01:35:44 27° NE
STARLINK-24 3.7 01:30:55 10° SSW 01:34:49 54° SE 01:36:30 30° ENE
Cosmos 1833 Rocket 3.9 01:30:33 10° NW 01:35:51 43° WSW 01:41:08 10° S
Cosmos 1802 Rocket 4.4 01:30:51 10° SSW 01:37:01 66° W 01:43:20 10° N
ADEOS Rocket 3.6 01:29:45 10° NNE 01:37:32 84° ESE 01:45:17 10° SSW
OE (NEXTSAT) 4.2 01:34:33 10° SW 01:38:01 76° SSE 01:39:09 40° ENE
CZ-4 R/B 2.9 01:34:57 10° S 01:38:54 40° W 01:42:53 10° NNW
STARLINK 1040 3.8 01:37:04 10° SSW 01:39:06 29° SSE 01:39:06 29° SSE
CZ-2C R/B 4.1 01:38:46 24° ESE 01:40:50 30° ENE 01:45:46 10° N
Cosmos 1607 4.4 01:36:03 10° NNW 01:41:56 40° NE 01:44:45 27° E
STARLINK-81 3.6 01:38:06 10° SSW 01:42:03 58° SE 01:43:18 38° ENE
Tsikada Rocket 4.0 01:36:26 10° N 01:42:46 65° E 01:49:05 10° SSE
HJ-1C 3.2 01:40:23 10° SSE 01:43:39 64° ENE 01:46:56 10° N
STARLINK-54 3.5 01:39:54 10° SW 01:43:52 67° SE 01:45:13 38° ENE
STARLINK-64 3.2 01:41:45 10° SW 01:45:19 86° NW 01:46:30 40° NE
STARLINK-77 3.5 01:41:23 10° SW 01:45:20 62° SE 01:46:29 41° ENE
STARLINK-42 3.2 01:43:28 10° SW 01:46:46 69° NW 01:47:42 42° NNE
STARLINK-25 3.5 01:43:02 10° SW 01:47:00 65° SE 01:48:06 44° ENE
Meteor 1-10 Rocket 4.1 01:42:19 10° N 01:47:59 84° E 01:53:33 10° S
CSL-04 Rocket 4.3 01:42:39 10° S 01:48:08 61° WSW 01:53:37 10° NNW
STARLINK-71 3.4 01:44:53 10° SW 01:48:52 76° SE 01:50:04 44° ENE
Cosmos 1939 Rocket 3.9 01:45:49 10° S 01:49:45 48° W 01:53:46 10° NNW
STARLINK-79 3.4 01:46:18 10° SW 01:50:18 70° SE 01:51:16 48° ENE
STARLINK-78 3.4 01:47:58 10° SW 01:51:58 74° SE 01:52:53 50° ENE
Cosmos 2346 Rocket 4.5 01:45:54 10° N 01:52:11 85° W 01:58:21 10° S
H-2A R/B 2.4 01:50:41 28° ESE 01:52:56 43° ENE 01:57:59 10° N
STARLINK-57 3.4 01:49:42 10° SW 01:53:43 80° SE 01:54:39 51° ENE
STARLINK-49 3.4 01:51:15 10° SW 01:55:15 79° SE 01:56:04 55° ENE
YAOGAN 1 4.3 01:52:54 10° SSW 01:56:50 34° W 02:00:47 10° NNW
STARLINK-27 3.4 01:52:55 10° SW 01:56:56 82° SE 01:57:41 57° ENE
ARGOS 3.5 01:57:02 38° E 01:57:56 41° ENE 02:02:59 10° N
STARLINK-74 3.4 01:54:33 10° SW 01:58:35 84° SE 01:59:15 60° ENE
STARLINK-39 3.4 01:56:12 10° SW 02:00:12 87° SE 02:00:50 62° NE
STARLINK-31 3.4 01:57:51 10° SW 02:01:53 89° NNW 02:02:27 65° NE
MOS 1 4.3 01:57:01 13° SSE 02:01:56 58° ENE 02:07:29 10° N
STARLINK-69 3.5 01:59:41 10° SW 02:03:42 79° NW 02:04:19 61° NNE
Cosmos 1354 Rocket 4.4 01:58:49 10° NNW 02:04:04 63° WSW 02:09:14 10° S
Centaur D-1AR AC-39 4.3 01:43:42 10° WSW 02:04:54 31° SSW 02:09:15 16° SSE
STARLINK-21 3.5 02:01:10 10° SW 02:05:11 83° NW 02:05:39 68° NNE
Lacrosse 5 rocket 4.2 02:04:28 10° NW 02:06:05 12° NNW 02:07:44 10° N
STARLINK-45 3.6 02:03:04 10° SW 02:07:04 72° NW 02:07:36 61° NNE
STARLINK-70 3.6 02:04:37 10° SW 02:08:38 73° NW 02:09:03 65° N
Cosmos 921 Rocket 3.0 02:05:20 10° SSW 02:09:48 90° SE 02:11:54 32° NNE
STARLINK-76 3.5 02:06:09 10° SW 02:10:10 75° NW 02:10:26 71° N
Cosmos 1633 Rocket 3.4 02:06:25 10° SSW 02:10:42 64° W 02:15:01 10° N
Cosmos 1666 Rocket 4.4 02:06:52 10° SSW 02:11:11 51° W 02:15:34 10° N
STARLINK-23 3.6 02:07:50 10° SW 02:11:51 72° NW 02:12:03 70° NNW
STARLINK-32 3.6 02:09:29 10° SW 02:13:28 70° NW 02:13:37 69° NNW
STARLINK-40 3.7 02:11:07 10° WSW 02:15:07 67° NW 02:15:12 67° NNW
Cosmos 1812 2.8 02:12:09 10° N 02:15:43 70° NW 02:15:43 70° NW
STARLINK-44 3.8 02:12:47 10° WSW 02:16:47 65° NW 02:16:48 65° NW
STARLINK-37 3.9 02:14:36 10° WSW 02:18:35 59° NW 02:18:36 59° NW
Ariane Rocket 3.2 02:14:27 10° S 02:19:31 69° WSW 02:24:37 10° NNW
STARLINK-36 3.9 02:16:07 10° WSW 02:19:58 60° NW 02:19:58 60° NW
STARLINK-68 4.1 02:18:02 10° WSW 02:21:53 53° NW 02:21:53 53° NW
STARLINK-63 4.1 02:19:35 10° WSW 02:23:21 53° NW 02:23:21 53° NW
STARLINK-35 4.2 02:21:09 10° WSW 02:24:46 53° WNW 02:24:46 53° WNW
NOSS 3-1 (C) 3.5 02:20:06 10° SW 02:25:25 64° NW 02:28:48 26° NNE
STARLINK-51 4.3 02:22:49 10° WSW 02:26:22 50° WNW 02:26:22 50° WNW
Cosmos 2233 Rocket 4.4 02:21:39 10° SSW 02:27:41 61° W 02:33:46 10° N
STARLINK-30 4.4 02:24:29 10° WSW 02:27:57 48° WNW 02:27:57 48° WNW
STARLINK-72 4.5 02:26:10 10° WSW 02:29:34 46° WNW 02:29:34 46° WNW
Cosmos 1943 Rocket 2.4 02:25:07 10° SSW 02:30:40 67° WNW 02:33:58 25° N
USA 267 3.3 02:29:33 36° NE 02:32:27 77° NW 02:38:58 10° SW
Lacrosse 4 Rocket 4.0 02:32:39 10° W 02:35:30 18° NW 02:38:26 10° N
Meteor 1-27 Rocket 4.5 02:40:09 10° NNW 02:45:27 49° W 02:50:49 10° SSW
Cosmos 2369 Rocket 2.6 02:45:13 10° SW 02:50:46 59° WNW 02:51:55 49° NNW
USA 234 4.2 03:05:54 36° N 03:05:54 36° N 03:10:27 10° NW
SL-4 R/B 4.4 03:01:13 10° NW 03:03:06 24° NW 03:03:06 24° NW
NOSS 3-1 (A) 4.4 03:14:16 10° WSW 03:18:31 39° WNW 03:18:31 39° WNW
H-2A R/B 4.2 03:31:17 20° WSW 03:32:29 22° W 03:36:35 10° NW
CZ-4C R/B 4.4 10:30:23 16° N 10:30:23 16° N 10:31:50 10° NNE
Cosmos 2237 Rocket 4.4 10:50:22 14° N 10:50:22 14° N 10:51:17 10° N
USA 229 DEB 3.9 10:45:55 64° N 10:47:11 80° ENE 10:54:49 10° SE
USA 229 3.9 10:45:58 63° N 10:47:16 79° ENE 10:54:53 10° SE
Cosmos 1934 Rocket 4.0 10:46:55 10° N 10:53:15 77° E 10:59:35 10° S
NOSS 3-1 (A) 4.5 10:49:13 25° NNW 10:54:08 63° NE 11:02:46 10° SE
Lacrosse 4 Rocket 4.2 11:05:32 11° SSE 11:05:32 11° SSE 11:05:40 10° SSE
USA 267 3.8 10:56:02 10° SSE 11:00:35 41° S 11:00:35 41° S
GEOS 3 Rocket 3.7 11:01:10 10° NNE 11:05:58 73° NNE 11:05:58 73° NNE
Meteor 2-10 Rocket 4.3 11:12:06 40° N 11:12:06 40° N 11:15:26 10° N
Cosmos 1605 Rocket 4.1 11:07:45 10° N 11:13:59 72° E 11:20:06 10° SSE
STARLINK-1058 4.3 11:17:59 53° ENE 11:17:59 53° ENE 11:21:30 10° ESE
Lacrosse 5 3.7 11:15:25 18° N 11:17:50 25° NE 11:22:01 10° E
Cosmos 292 Rocket 4.1 11:17:54 35° N 11:19:48 64° ENE 11:24:30 10° SSE
STARLINK-1043 4.0 11:22:45 62° ENE 11:22:45 62° ENE 11:26:30 10° ESE
Cosmos 1943 Rocket 3.4 11:19:30 10° N 11:24:41 40° ENE 11:29:49 10° SE
STARLINK-1065 3.8 11:26:55 69° ENE 11:26:55 69° ENE 11:30:49 10° SE
Cosmos 2297 3.5 11:25:41 53° NW 11:26:56 72° WSW 11:32:32 10° SSE
CZ-2C R/B 3.3 11:22:00 10° N 11:25:20 36° NNW 11:25:20 36° NNW
SL-16 R/B 2.9 11:29:15 37° NNW 11:29:15 37° NNW 11:33:28 10° N
Meteor PRIRODA 3.9 11:28:32 10° NNE 11:32:12 64° E 11:33:00 48° SSE
STARLINK-1063 3.6 11:32:20 80° NNE 11:32:23 80° NE 11:36:30 10° SE
Okean O Rocket 4.2 11:31:38 10° NE 11:34:56 21° E 11:38:12 10° SE
Cosmos 1727 Rocket 4.0 11:29:13 10° S 11:35:25 83° E 11:41:37 10° N
STARLINK-1064 3.5 11:37:05 80° NW 11:37:18 87° NE 11:41:26 10° SE
Shenzhou-11 Module 3.9 11:39:38 26° ESE 11:39:38 26° ESE 11:41:11 10° E
Gbstr 26 Del rocket 4.5 11:37:04 39° W 11:39:30 54° SW 11:47:16 10° SSE
Cosmos 1484 Rocket 2.7 11:36:08 10° NNE 11:40:06 89° WNW 11:41:54 32° SSW
STARLINK-1041 3.4 11:41:54 71° WNW 11:42:19 84° SW 11:46:27 10° SE
ATLAS CENTAUR R/B 3.5 11:44:13 17° NNW 11:44:13 17° NNW 11:45:58 10° N
Cosmos 1743 Rocket 3.9 11:39:44 10° N 11:44:02 63° E 11:48:19 10° SSE
Cosmos 1603 3.8 11:38:30 10° SSW 11:44:12 75° ESE 11:49:54 10° NNE
CZ-4B R/B 3.9 11:40:57 10° N 11:42:54 29° N 11:42:54 29° N
Cosmos 1339 Rocket 4.5 11:39:49 16° SSW 11:44:38 52° W 11:50:34 10° N
FENGYUN 3A 4.0 11:40:37 10° NNE 11:46:02 67° E 11:51:26 10° S
Cosmos 2369 Rocket 3.1 11:40:50 10° N 11:46:22 48° ENE 11:51:52 10° SE
STARLINK-1038 3.5 11:46:36 62° WNW 11:47:13 76° SW 11:51:20 10° SE
NOSS 3-1 (C) 4.4 11:46:37 26° WNW 11:50:56 45° WSW 11:59:09 10° S
Cosmos 1943 3.6 11:45:35 10° S 11:51:06 65° ESE 11:56:41 10° NNE
H-2A R/B 2.8 11:47:09 10° N 11:51:21 45° WNW 11:51:31 45° W
STARLINK-1046 3.5 11:51:26 53° WNW 11:52:13 69° SW 11:56:20 10° SE
Cosmos 1842 Rocket 3.6 11:49:34 18° SSW 11:52:45 58° W 11:57:11 10° N
Cosmos 1190 Rocket 4.4 11:47:40 10° S 11:52:50 64° ESE 11:58:05 10° NNE
PSLV R/B 3.6 11:49:17 10° NNE 11:53:02 84° ESE 11:56:50 10° SSW
STARLINK-1103 4.4 11:53:10 18° SSW 11:55:47 47° SE 11:59:37 10° ENE
